Location: Unspecified
(0.0000°N, 0.0000°E)
Time: 06:31:07
(UTC+00:00)

LightSail 2 - Pass Details

Date: 14 October 2019
Orbit: 707 x 723 km, 24.0° (Epoch: 13 October)

Event Time Altitude Azimuth Distance (km) Brightness Sun altitude
Exits shadow 03:55:42 17° 186° (S) 1,733 7.1 -27.3°
Drops below altitude 10° 03:58:10 10° 159° (SSE) 2,176 8.0 -26.7°
Sets 04:01:18 0° 140° (SE) 3,093 9.2 -25.9°
